timestamp,wind_dir_avg,wind_spd_avg,wind_spd_max_dir,wind_spd_gust,battery_voltage,lat,long
2021-11-12 00:04:00+00:00,359.0,14.09,357.0,16.66,12.33,47.59359,-54.27349
2021-11-12 00:14:01+00:00,359.0,14.26,355.0,16.19,12.33,47.59359,-54.27349
2021-11-12 00:24:01+00:00,2.0,14.08,4.0,17.2,12.33,47.59359,-54.27349
2021-11-12 00:34:01+00:00,1.0,12.26,3.0,15.27,12.33,47.59359,-54.27349
2021-11-12 00:44:01+00:00,5.0,14.1,3.0,16.92,12.33,47.59359,-54.27349
2021-11-12 00:54:01+00:00,353.0,14.0,348.0,16.05,12.33,47.59359,-54.27349
2021-11-12 01:04:01+00:00,2.0,16.22,1.0,19.55,12.33,47.59359,-54.27349
2021-11-12 01:14:01+00:00,355.0,16.87,353.0,19.12,12.33,47.59359,-54.27349
2021-11-12 01:24:01+00:00,352.0,19.08,345.0,21.57,12.33,47.59359,-54.27349
2021-11-12 01:34:01+00:00,354.0,15.98,358.0,18.13,12.33,47.59359,-54.27349
2021-11-12 01:44:01+00:00,357.0,15.06,355.0,17.42,12.33,47.59359,-54.27349
2021-11-12 01:54:01+00:00,354.0,15.79,358.0,18.92,12.33,47.59359,-54.27349
2021-11-12 02:04:01+00:00,348.0,15.79,336.0,19.18,12.33,47.59359,-54.27349
2021-11-12 02:14:00+00:00,345.0,14.96,334.0,18.29,12.33,47.59359,-54.27349
2021-11-12 02:24:00+00:00,348.0,13.22,346.0,15.57,12.33,47.59359,-54.27349
2021-11-12 02:34:00+00:00,356.0,13.66,353.0,17.83,12.33,47.59359,-54.27349
2021-11-12 02:44:00+00:00,357.0,14.64,0.0,16.82,12.33,47.59359,-54.27349
2021-11-12 02:54:00+00:00,355.0,12.84,345.0,15.08,12.33,47.59359,-54.27349
2021-11-12 03:04:00+00:00,355.0,12.82,4.0,16.73,12.33,47.59359,-54.27349
2021-11-12 03:14:00+00:00,355.0,13.32,354.0,15.36,12.25,47.59359,-54.27349
2021-11-12 03:24:00+00:00,353.0,13.83,350.0,17.23,12.25,47.59359,-54.27349
2021-11-12 03:34:00+00:00,353.0,12.18,354.0,14.37,12.25,47.59359,-54.27349
2021-11-12 03:44:00+00:00,2.0,11.79,1.0,13.47,12.25,47.59359,-54.27349
2021-11-12 03:54:00+00:00,0.0,11.2,352.0,15.26,12.25,47.59359,-54.27349
2021-11-12 04:04:00+00:00,354.0,11.98,356.0,14.61,12.25,47.59359,-54.27349
2021-11-12 04:14:00+00:00,356.0,14.86,2.0,17.32,12.25,47.59359,-54.27349
2021-11-12 04:24:00+00:00,352.0,12.65,350.0,15.47,12.25,47.59359,-54.27349
2021-11-12 04:34:00+00:00,354.0,12.18,353.0,15.04,12.25,47.59359,-54.27349
2021-11-12 04:44:00+00:00,358.0,15.03,356.0,17.73,12.25,47.59359,-54.27349
2021-11-12 04:54:00+00:00,1.0,13.92,1.0,15.36,12.25,47.59359,-54.27349
2021-11-12 05:04:00+00:00,354.0,13.85,352.0,15.51,12.25,47.59359,-54.27349
2021-11-12 05:14:01+00:00,355.0,13.9,356.0,17.65,12.25,47.59359,-54.27349
2021-11-12 05:24:01+00:00,353.0,14.63,341.0,17.68,12.25,47.59359,-54.27349
2021-11-12 05:34:01+00:00,351.0,11.03,350.0,12.77,12.25,47.59359,-54.27349
2021-11-12 05:44:01+00:00,353.0,12.72,357.0,15.29,12.25,47.59359,-54.27349
2021-11-12 05:54:01+00:00,357.0,10.14,5.0,12.12,12.25,47.59359,-54.27349
2021-11-12 06:04:01+00:00,351.0,11.62,350.0,13.08,12.25,47.59359,-54.27349
2021-11-12 06:14:01+00:00,343.0,11.66,346.0,13.63,12.25,47.59359,-54.27349
2021-11-12 06:24:01+00:00,354.0,10.61,350.0,13.35,12.25,47.59359,-54.27349
2021-11-12 06:34:01+00:00,352.0,12.1,358.0,15.31,12.25,47.59359,-54.27349
2021-11-12 06:44:01+00:00,351.0,11.86,350.0,12.99,12.25,47.59359,-54.27349
2021-11-12 06:54:01+00:00,351.0,8.99,356.0,10.58,12.25,47.59359,-54.27349
2021-11-12 07:04:01+00:00,349.0,9.83,344.0,12.04,12.25,47.59359,-54.27349
2021-11-12 07:14:00+00:00,348.0,10.68,344.0,11.99,12.25,47.59359,-54.27349
2021-11-12 07:24:00+00:00,317.0,12.14,320.0,14.68,12.25,47.59359,-54.27349
2021-11-12 07:34:00+00:00,346.0,12.19,349.0,15.59,12.25,47.59359,-54.27349
2021-11-12 07:44:00+00:00,351.0,10.9,354.0,14.19,12.25,47.59359,-54.27349
2021-11-12 07:54:00+00:00,351.0,9.71,355.0,11.75,12.25,47.59359,-54.27349
2021-11-12 08:04:00+00:00,348.0,10.15,335.0,12.5,12.25,47.59359,-54.27349
2021-11-12 08:14:00+00:00,345.0,9.12,356.0,10.45,12.25,47.59359,-54.27349
2021-11-12 08:24:00+00:00,342.0,11.1,325.0,14.35,12.25,47.59359,-54.27349
2021-11-12 08:34:00+00:00,344.0,11.11,346.0,12.95,12.25,47.59359,-54.27349
2021-11-12 08:44:00+00:00,345.0,12.4,347.0,14.18,12.25,47.59359,-54.27349
2021-11-12 08:54:00+00:00,345.0,12.65,333.0,15.29,12.25,47.59359,-54.27349
2021-11-12 09:04:00+00:00,346.0,13.12,347.0,15.92,12.25,47.59359,-54.27349
2021-11-12 09:14:01+00:00,347.0,11.35,344.0,13.85,12.25,47.59359,-54.27349
2021-11-12 09:24:01+00:00,347.0,10.14,340.0,11.85,12.25,47.59359,-54.27349
2021-11-12 09:34:01+00:00,349.0,11.97,337.0,14.04,12.25,47.59359,-54.27349
2021-11-12 09:44:01+00:00,353.0,11.82,347.0,14.85,12.25,47.59359,-54.27349
2021-11-12 09:54:01+00:00,341.0,10.28,315.0,13.13,12.25,47.59359,-54.27349
2021-11-12 10:04:01+00:00,347.0,10.7,340.0,13.8,12.25,47.59359,-54.27349
2021-11-12 10:14:00+00:00,353.0,10.46,359.0,12.27,12.25,47.59359,-54.27349
2021-11-12 10:24:00+00:00,352.0,11.35,340.0,13.43,12.25,47.59359,-54.27349
2021-11-12 10:34:00+00:00,352.0,12.34,347.0,13.81,12.25,47.59359,-54.27349
2021-11-12 10:44:00+00:00,351.0,10.89,344.0,12.58,12.25,47.59359,-54.27349
2021-11-12 10:54:00+00:00,349.0,10.64,344.0,13.47,12.25,47.59359,-54.27349
2021-11-12 11:04:00+00:00,332.0,9.09,317.0,13.19,12.25,47.59359,-54.27349
2021-11-12 11:14:01+00:00,334.0,8.36,308.0,10.74,12.33,47.59359,-54.27349
2021-11-12 11:24:01+00:00,326.0,8.42,309.0,11.2,12.33,47.59359,-54.27349
2021-11-12 11:34:01+00:00,331.0,7.65,312.0,11.57,12.33,47.59359,-54.27349
2021-11-12 11:44:01+00:00,335.0,8.68,320.0,10.44,12.33,47.59359,-54.27349
2021-11-12 11:54:01+00:00,337.0,7.64,335.0,9.06,12.33,47.59359,-54.27349
2021-11-12 12:04:01+00:00,312.0,9.61,301.0,12.3,12.33,47.59359,-54.27349
2021-11-12 12:14:00+00:00,308.0,10.28,303.0,12.36,14.24,47.59359,-54.27349
2021-11-12 12:24:00+00:00,314.0,10.24,307.0,12.41,14.24,47.59359,-54.27349
2021-11-12 12:34:00+00:00,309.0,9.53,302.0,12.01,14.24,47.59359,-54.27349
2021-11-12 12:44:00+00:00,310.0,10.77,311.0,12.69,14.24,47.59359,-54.27349
2021-11-12 12:54:00+00:00,313.0,9.16,309.0,13.01,14.24,47.59359,-54.27349
2021-11-12 13:04:00+00:00,315.0,13.2,323.0,15.45,14.24,47.59359,-54.27349
2021-11-12 13:14:00+00:00,323.0,10.38,313.0,13.84,14.32,47.59359,-54.27349
2021-11-12 13:24:00+00:00,328.0,9.5,313.0,12.73,14.32,47.59359,-54.27349
2021-11-12 13:34:00+00:00,318.0,12.06,315.0,13.96,14.32,47.59359,-54.27349
2021-11-12 13:44:00+00:00,342.0,11.13,341.0,12.68,14.32,47.59359,-54.27349
2021-11-12 13:54:00+00:00,316.0,10.99,316.0,13.38,14.32,47.59359,-54.27349
2021-11-12 14:04:00+00:00,340.0,9.15,316.0,12.35,14.32,47.59359,-54.27349
2021-11-12 14:14:00+00:00,324.0,9.53,316.0,11.76,13.6,47.59359,-54.27349
2021-11-12 14:24:00+00:00,311.0,13.11,313.0,14.36,13.6,47.59359,-54.27349
2021-11-12 14:34:00+00:00,310.0,12.33,312.0,14.07,13.6,47.59359,-54.27349
2021-11-12 14:44:00+00:00,310.0,12.51,312.0,13.79,13.6,47.59359,-54.27349
2021-11-12 14:54:00+00:00,310.0,12.21,310.0,13.35,13.6,47.59359,-54.27349
2021-11-12 15:04:00+00:00,306.0,12.04,318.0,13.92,13.6,47.59359,-54.27349
2021-11-12 15:14:00+00:00,329.0,9.54,308.0,11.39,14.48,47.59359,-54.27349
2021-11-12 15:24:00+00:00,311.0,12.13,312.0,13.82,14.48,47.59359,-54.27349
2021-11-12 15:34:00+00:00,312.0,11.31,313.0,12.74,14.48,47.59359,-54.27349
2021-11-12 15:44:00+00:00,313.0,11.99,316.0,13.47,14.48,47.59359,-54.27349
2021-11-12 15:54:00+00:00,333.0,9.07,314.0,12.08,14.48,47.59359,-54.27349
2021-11-12 16:04:00+00:00,340.0,8.27,337.0,10.56,14.48,47.59359,-54.27349
2021-11-12 16:14:01+00:00,325.0,9.64,315.0,12.85,14.08,47.59359,-54.27349
2021-11-12 16:24:01+00:00,343.0,8.0,341.0,9.27,14.08,47.59359,-54.27349
2021-11-12 16:34:01+00:00,347.0,7.74,343.0,8.8,14.08,47.59359,-54.27349
2021-11-12 16:44:01+00:00,327.0,8.53,311.0,12.18,14.08,47.59359,-54.27349
2021-11-12 16:54:01+00:00,346.0,8.49,351.0,9.49,14.08,47.59359,-54.27349
2021-11-12 17:04:01+00:00,339.0,9.82,338.0,11.4,14.08,47.59359,-54.27349
2021-11-12 17:14:01+00:00,347.0,9.7,346.0,11.53,14.24,47.59359,-54.27349
2021-11-12 17:24:01+00:00,349.0,8.51,341.0,9.77,14.24,47.59359,-54.27349
2021-11-12 17:34:01+00:00,351.0,9.8,359.0,11.43,14.24,47.59359,-54.27349
2021-11-12 17:44:01+00:00,342.0,9.7,344.0,11.32,14.24,47.59359,-54.27349
2021-11-12 17:54:01+00:00,344.0,10.0,345.0,11.49,14.24,47.59359,-54.27349
2021-11-12 18:04:01+00:00,352.0,8.51,354.0,9.83,14.24,47.59359,-54.27349
2021-11-12 18:14:01+00:00,354.0,8.54,1.0,9.71,14.24,47.59359,-54.27349
2021-11-12 18:24:01+00:00,350.0,9.57,347.0,11.2,14.24,47.59359,-54.27349
2021-11-12 18:34:01+00:00,355.0,10.16,356.0,11.31,14.24,47.59359,-54.27349
2021-11-12 18:44:01+00:00,338.0,9.61,341.0,10.96,14.24,47.59359,-54.27349
2021-11-12 18:54:01+00:00,332.0,9.05,326.0,10.43,14.24,47.59359,-54.27349
2021-11-12 19:04:01+00:00,332.0,8.12,333.0,9.01,14.24,47.59359,-54.27349
2021-11-12 19:14:01+00:00,349.0,9.38,345.0,10.61,13.84,47.59359,-54.27349
2021-11-12 19:24:01+00:00,343.0,9.11,345.0,10.31,13.84,47.59359,-54.27349
2021-11-12 19:34:01+00:00,343.0,8.26,343.0,10.13,13.84,47.59359,-54.27349
2021-11-12 19:44:01+00:00,338.0,7.9,338.0,9.17,13.84,47.59359,-54.27349
2021-11-12 19:54:01+00:00,341.0,7.92,341.0,9.38,13.84,47.59359,-54.27349
2021-11-12 20:04:01+00:00,342.0,7.24,335.0,8.35,13.84,47.59359,-54.27349
2021-11-12 20:14:00+00:00,341.0,7.89,344.0,9.14,12.97,47.59359,-54.27349
2021-11-12 20:24:00+00:00,339.0,7.81,334.0,8.81,12.97,47.59359,-54.27349
2021-11-12 20:34:00+00:00,342.0,8.79,341.0,10.28,12.97,47.59359,-54.27349
2021-11-12 20:44:00+00:00,344.0,8.34,348.0,10.32,12.97,47.59359,-54.27349
2021-11-12 20:54:00+00:00,346.0,8.87,344.0,9.82,12.97,47.59359,-54.27349
2021-11-12 21:04:00+00:00,352.0,8.36,354.0,9.41,12.97,47.59359,-54.27349
2021-11-12 21:14:01+00:00,0.0,7.47,2.0,8.66,12.65,47.59359,-54.27349
2021-11-12 21:24:01+00:00,341.0,7.31,338.0,8.15,12.65,47.59359,-54.27349
2021-11-12 21:34:01+00:00,1.0,7.14,359.0,7.67,12.65,47.59359,-54.27349
2021-11-12 21:44:01+00:00,0.0,6.08,358.0,7.34,12.65,47.59359,-54.27349
2021-11-12 21:54:01+00:00,358.0,6.45,355.0,7.51,12.65,47.59359,-54.27349
2021-11-12 22:04:01+00:00,353.0,6.98,352.0,8.2,12.65,47.59359,-54.27349
2021-11-12 22:14:00+00:00,346.0,5.87,353.0,6.59,12.65,47.59359,-54.27349
2021-11-12 22:24:00+00:00,1.0,5.97,0.0,6.84,12.65,47.59359,-54.27349
2021-11-12 22:34:00+00:00,354.0,5.6,2.0,7.39,12.65,47.59359,-54.27349
2021-11-12 22:44:00+00:00,348.0,6.85,343.0,8.22,12.65,47.59359,-54.27349
2021-11-12 22:54:00+00:00,0.0,6.91,5.0,8.15,12.65,47.59359,-54.27349
2021-11-12 23:04:00+00:00,354.0,5.84,355.0,6.58,12.65,47.59359,-54.27349
2021-11-12 23:14:00+00:00,352.0,6.45,349.0,7.72,12.57,47.59359,-54.27349
2021-11-12 23:24:00+00:00,348.0,6.01,348.0,7.08,12.57,47.59359,-54.27349
2021-11-12 23:34:00+00:00,340.0,5.75,343.0,6.61,12.57,47.59359,-54.27349
2021-11-12 23:44:00+00:00,349.0,5.03,352.0,5.68,12.57,47.59359,-54.27349
2021-11-12 23:54:00+00:00,353.0,4.83,352.0,6.35,12.57,47.59359,-54.27349
